Volver al catálogo

LEMUR 2 STELLA

ActivoMeteoSSO
NORAD 60533·PAYLOAD·🇺🇸 United States

Lanzado Aug 16, 2024 desde Vandenberg Space Force Base

Loading…

Próximos Pases (próximas 24 horas)

TLE

ActualizadoSource: Space-Track

Época: Sep 13, 2026, 18:56 UTC

1 60533U 24149BT  26256.78930755  .00008684  00000-0  48912-3 0  9995
2 60533  97.6693 339.7182 0001682 100.1205 260.0216 15.13463352113890

Sigue LEMUR 2 STELLA en tiempo real con AllMySat

Download on the App Store